| time (UTC) | temp F | wind direction | speed knots | gust knots | rain 1hr in | rain 24hr in | rain mn in | humidity % | barometer mb |
| 20260507054334 | 50 | 78 | 0.0 | 0.9 | 0.00 | 0.00 | 0.00 | 97 | 1024.6 |
| 20260507053831 | 51 | 232 | 0.0 | 0.0 | 0.00 | 0.00 | 0.00 | 97 | 1024.7 |
| 20260507053329 | 51 | 335 | 0.9 | 1.7 | 0.00 | 0.00 | 0.00 | 97 | 1024.3 |
| 20260507052828 | 51 | 236 | 0.9 | 0.9 | 0.00 | 0.00 | 0.00 | 97 | 1024.4 |
| 20260507052324 | 51 | 235 | 0.0 | 0.0 | 0.00 | 0.00 | 0.00 | 97 | 1024.4 |
| 20260507051822 | 51 | 198 | 0.0 | 0.0 | 0.00 | 0.00 | 0.00 | 96 | 1024.3 |
| 20260507051319 | 51 | 250 | 0.9 | 0.9 | 0.00 | 0.00 | 0.00 | 96 | 1024.8 |
| 20260507050816 | 51 | 241 | 0.0 | 0.0 | 0.00 | 0.00 | 0.00 | 96 | 1024.4 |
| 20260507050312 | 51 | 228 | 0.0 | 0.0 | 0.00 | 0.00 | 0.00 | 96 | 1024.9 |
| 20260507045809 | 51 | 247 | 0.0 | 0.0 | 0.00 | 0.00 | 0.00 | 97 | 1025.0 |
| 20260507045307 | 51 | 220 | 0.0 | 0.0 | 0.00 | 0.00 | 0.00 | 96 | 1024.9 |
| 20260507044803 | 51 | 218 | 0.9 | 0.9 | 0.00 | 0.00 | 0.00 | 96 | 1025.1 |
| 20260507044259 | 51 | 249 | 0.0 | 0.9 | 0.00 | 0.00 | 0.00 | 96 | 1025.1 |
| 20260507043755 | 51 | 243 | 0.9 | 0.9 | 0.00 | 0.00 | 0.00 | 96 | 1024.8 |
| 20260507043252 | 51 | 237 | 0.0 | 0.9 | 0.00 | 0.00 | 0.00 | 96 | 1024.8 |
| 20260507042748 | 52 | 262 | 0.0 | 0.9 | 0.00 | 0.00 | 0.00 | 96 | 1024.7 |
| 20260507042243 | 51 | 214 | 0.0 | 0.0 | 0.00 | 0.00 | 0.00 | 96 | 1024.6 |
| 20260507041742 | 52 | 265 | 0.0 | 0.0 | 0.00 | 0.00 | 0.00 | 96 | 1024.4 |
| 20260507041238 | 52 | 201 | 0.0 | 0.0 | 0.00 | 0.00 | 0.00 | 96 | 1024.4 |
| 20260507040735 | 52 | 257 | 0.0 | 0.0 | 0.00 | 0.00 | 0.00 | 96 | 1024.9 |
| 20260507040231 | 52 | 11 | 0.9 | 0.9 | 0.00 | 0.00 | 0.00 | 96 | 1024.9 |
| 20260507035727 | 52 | 212 | 0.0 | 0.0 | 0.00 | 0.48 | 0.48 | 96 | 1024.9 |
| 20260507035222 | 52 | 210 | 0.0 | 0.0 | 0.00 | 0.48 | 0.48 | 96 | 1024.7 |
| 20260507034720 | 52 | 254 | 0.9 | 0.9 | 0.07 | 0.48 | 0.48 | 96 | 1024.6 |
| 20260507034217 | 52 | 260 | 1.7 | 1.7 | 0.07 | 0.48 | 0.48 | 96 | 1024.8 |
| 20260507033716 | 52 | 247 | 1.7 | 1.7 | 0.00 | 0.47 | 0.47 | 96 | 1025.0 |
| 20260507033213 | 53 | 211 | 0.9 | 0.9 | 0.05 | 0.47 | 0.47 | 96 | 1024.9 |
| 20260507032710 | 53 | 212 | 1.7 | 1.7 | 0.17 | 0.47 | 0.47 | 96 | 1024.7 |
| 20260507032206 | 53 | 243 | 2.6 | 2.6 | 0.12 | 0.46 | 0.46 | 96 | 1024.8 |
| 20260507031703 | 54 | 147 | 1.7 | 3.5 | 0.07 | 0.44 | 0.44 | 96 | 1024.7 |
| 20260507031159 | 54 | 255 | 1.7 | 1.7 | 0.14 | 0.44 | 0.44 | 96 | 1025.2 |
| 20260507030656 | 55 | 98 | 0.0 | 0.0 | 0.19 | 0.43 | 0.43 | 96 | 1024.8 |
| 20260507030154 | 55 | 252 | 0.9 | 0.9 | 0.42 | 0.43 | 0.43 | 96 | 1024.9 |
| 20260507025651 | 55 | 162 | 0.0 | 0.0 | 0.42 | 0.41 | 0.41 | 96 | 1024.7 |
| 20260507025148 | 55 | 354 | 0.0 | 0.0 | 0.12 | 0.35 | 0.35 | 96 | 1024.6 |
| 20260507024646 | 55 | 331 | 0.0 | 0.0 | 0.05 | 0.34 | 0.34 | 96 | 1024.7 |
| 20260507024143 | 55 | 217 | 0.0 | 0.0 | 0.00 | 0.33 | 0.33 | 96 | 1024.1 |
| 20260507023638 | 55 | 160 | 0.0 | 0.0 | 0.00 | 0.33 | 0.33 | 96 | 1024.2 |
| 20260507023136 | 56 | 263 | 0.9 | 1.7 | 0.00 | 0.33 | 0.33 | 96 | 1024.2 |
| 20260507022633 | 56 | 244 | 3.5 | 5.2 | 0.07 | 0.33 | 0.33 | 96 | 1024.3 |
| 20260507022128 | 58 | 263 | 1.7 | 2.6 | 0.19 | 0.33 | 0.33 | 96 | 1024.2 |
| 20260507021625 | 58 | 265 | 4.3 | 6.1 | 0.12 | 0.32 | 0.32 | 96 | 1024.2 |
| 20260507021120 | 58 | 254 | 0.9 | 0.9 | 0.00 | 0.30 | 0.30 | 96 | 1024.1 |
| 20260507020619 | 58 | 166 | 0.9 | 0.9 | 0.00 | 0.30 | 0.30 | 96 | 1023.6 |
| 20260507020114 | 58 | 307 | 0.9 | 1.7 | 0.00 | 0.30 | 0.30 | 96 | 1023.6 |
| 20260507015613 | 58 | 304 | 1.7 | 3.5 | 0.00 | 0.30 | 0.30 | 96 | 1023.9 |
| 20260507015110 | 58 | 241 | 0.9 | 1.7 | 0.00 | 0.30 | 0.30 | 96 | 1023.4 |
| 20260507014607 | 58 | 173 | 0.9 | 0.9 | 0.00 | 0.30 | 0.30 | 96 | 1023.6 |
| 20260507014102 | 58 | 300 | 0.9 | 1.7 | 0.00 | 0.30 | 0.30 | 96 | 1023.4 |
| 20260507013559 | 58 | 103 | 0.9 | 0.9 | 0.00 | 0.30 | 0.30 | 96 | 1023.7 |
| 20260507013057 | 58 | 158 | 0.0 | 0.0 | 0.00 | 0.30 | 0.30 | 96 | 1023.5 |
| 20260507012554 | 58 | 81 | 0.0 | 0.9 | 0.00 | 0.30 | 0.30 | 96 | 1023.7 |
| 20260507012049 | 58 | 305 | 0.0 | 0.9 | 0.00 | 0.30 | 0.30 | 96 | 1023.6 |
| 20260507011548 | 58 | 237 | 0.9 | 0.9 | 0.00 | 0.30 | 0.30 | 96 | 1023.7 |
| 20260507011043 | 58 | 17 | 0.0 | 0.9 | 0.00 | 0.30 | 0.30 | 96 | 1023.6 |
| 20260507010538 | 58 | 323 | 1.7 | 1.7 | 0.00 | 0.30 | 0.30 | 96 | 1023.5 |
| 20260507010035 | 58 | 171 | 0.0 | 0.9 | 0.00 | 0.30 | 0.30 | 96 | 1023.6 |
| 20260507005532 | 58 | 23 | 0.0 | 0.0 | 0.00 | 0.30 | 0.30 | 96 | 1023.5 |
| 20260507005028 | 58 | 311 | 0.9 | 1.7 | 0.00 | 0.30 | 0.30 | 96 | 1023.4 |
| 20260507004526 | 58 | 170 | 0.0 | 0.0 | 0.00 | 0.30 | 0.30 | 96 | 1023.2 |
| 20260507004023 | 58 | 274 | 1.7 | 2.6 | 0.00 | 0.30 | 0.30 | 96 | 1023.4 |
| 20260507003518 | 58 | 244 | 0.0 | 0.9 | 0.00 | 0.30 | 0.30 | 96 | 1023.2 |
| 20260507003014 | 58 | 81 | 0.0 | 0.9 | 0.00 | 0.30 | 0.30 | 96 | 1023.5 |
| 20260507002510 | 58 | 296 | 0.9 | 0.9 | 0.00 | 0.30 | 0.30 | 96 | 1023.5 |
| 20260507002007 | 58 | 254 | 1.7 | 2.6 | 0.00 | 0.30 | 0.30 | 96 | 1023.5 |
| 20260507001503 | 58 | 252 | 2.6 | 5.2 | 0.00 | 0.30 | 0.30 | 96 | 1023.5 |
| 20260507001001 | 58 | 153 | 1.7 | 1.7 | 0.00 | 0.30 | 0.30 | 96 | 1023.7 |
| 20260507000456 | 58 | 302 | 3.5 | 5.2 | 0.00 | 0.30 | 0.30 | 96 | 1023.7 |
| 20260506235952 | 58 | 343 | 0.0 | 0.0 | 0.00 | 0.30 | 0.30 | 96 | 1023.7 |
| 20260506235450 | 58 | 179 | 3.5 | 7.0 | 0.00 | 0.30 | 0.30 | 96 | 1023.6 |
| 20260506234945 | 58 | 108 | 0.0 | 0.9 | 0.00 | 0.30 | 0.30 | 96 | 1023.5 |
| 20260506234443 | 58 | 268 | 0.9 | 1.7 | 0.00 | 0.30 | 0.30 | 96 | 1023.3 |
| 20260506233940 | 58 | 108 | 0.9 | 0.9 | 0.00 | 0.30 | 0.30 | 96 | 1023.2 |
| 20260506233437 | 58 | 238 | 0.9 | 1.7 | 0.00 | 0.30 | 0.30 | 96 | 1023.2 |
| 20260506232933 | 58 | 228 | 1.7 | 1.7 | 0.00 | 0.30 | 0.30 | 96 | 1023.2 |
| 20260506232430 | 58 | 269 | 1.7 | 3.5 | 0.00 | 0.30 | 0.30 | 95 | 1023.0 |
| 20260506231925 | 58 | 103 | 1.7 | 2.6 | 0.00 | 0.30 | 0.30 | 95 | 1023.2 |
| 20260506231423 | 58 | 218 | 0.0 | 0.9 | 0.00 | 0.30 | 0.30 | 95 | 1022.9 |
| 20260506230920 | 58 | 92 | 0.9 | 1.7 | 0.00 | 0.30 | 0.30 | 95 | 1022.9 |
| 20260506230417 | 58 | 312 | 1.7 | 1.7 | 0.00 | 0.30 | 0.30 | 95 | 1023.0 |
| 20260506225913 | 58 | 133 | 1.7 | 2.6 | 0.00 | 0.30 | 0.30 | 95 | 1022.9 |
| 20260506225411 | 58 | 260 | 0.0 | 0.0 | 0.00 | 0.30 | 0.30 | 95 | 1022.9 |
| 20260506224907 | 58 | 123 | 1.7 | 2.6 | 0.00 | 0.30 | 0.30 | 95 | 1022.9 |
| 20260506224405 | 58 | 327 | 2.6 | 2.6 | 0.00 | 0.30 | 0.30 | 95 | 1023.0 |
| 20260506223901 | 58 | 192 | 0.9 | 0.9 | 0.07 | 0.30 | 0.30 | 95 | 1022.9 |
| 20260506223356 | 58 | 143 | 0.0 | 0.0 | 0.07 | 0.30 | 0.30 | 95 | 1022.8 |
| 20260506222854 | 58 | 301 | 2.6 | 2.6 | 0.05 | 0.29 | 0.29 | 95 | 1022.9 |
| 20260506222349 | 58 | 344 | 1.7 | 2.6 | 0.05 | 0.29 | 0.29 | 95 | 1022.9 |
| 20260506221847 | 59 | 164 | 0.9 | 2.6 | 0.07 | 0.28 | 0.28 | 95 | 1022.9 |
| 20260506221344 | 59 | 137 | 0.9 | 1.7 | 0.12 | 0.28 | 0.28 | 95 | 1022.9 |
| 20260506220842 | 59 | 230 | 0.0 | 0.0 | 0.19 | 0.28 | 0.28 | 95 | 1022.8 |
| 20260506220337 | 59 | 270 | 1.7 | 6.1 | 0.24 | 0.27 | 0.27 | 95 | 1023.0 |
| 20260506215834 | 59 | 138 | 0.9 | 0.9 | 0.12 | 0.25 | 0.25 | 95 | 1023.0 |
| 20260506215330 | 59 | 317 | 0.0 | 0.0 | 0.00 | 0.23 | 0.23 | 95 | 1022.8 |
| 20260506214826 | 59 | 239 | 1.7 | 1.7 | 0.00 | 0.23 | 0.23 | 95 | 1022.8 |
| 20260506214323 | 59 | 218 | 1.7 | 1.7 | 0.00 | 0.23 | 0.23 | 95 | 1022.8 |
| 20260506213821 | 59 | 84 | 0.0 | 0.0 | 0.00 | 0.23 | 0.23 | 95 | 1022.7 |
| 20260506213318 | 59 | 243 | 0.9 | 0.9 | 0.00 | 0.23 | 0.23 | 95 | 1022.9 |
| 20260506212816 | 59 | 244 | 0.9 | 1.7 | 0.00 | 0.23 | 0.23 | 95 | 1022.9 |
| 20260506212311 | 59 | 286 | 1.7 | 5.2 | 0.00 | 0.23 | 0.23 | 95 | 1023.2 |
| 20260506211806 | 59 | 90 | 0.0 | 0.0 | 0.00 | 0.23 | 0.23 | 95 | 1023.3 |
| 20260506211303 | 59 | 128 | 0.9 | 0.9 | 0.05 | 0.23 | 0.23 | 95 | 1023.2 |
| 20260506210800 | 59 | 84 | 4.3 | 6.1 | 0.05 | 0.23 | 0.23 | 95 | 1023.3 |
| 20260506210257 | 59 | 74 | 0.0 | 0.0 | 0.00 | 0.22 | 0.22 | 94 | 1023.2 |
| 20260506205754 | 59 | 272 | 0.9 | 0.9 | 0.07 | 0.22 | 0.22 | 94 | 1023.5 |
| 20260506205249 | 59 | 235 | 0.9 | 1.7 | 0.07 | 0.22 | 0.22 | 94 | 1023.2 |
| 20260506204746 | 59 | 124 | 0.0 | 0.9 | 0.05 | 0.21 | 0.21 | 94 | 1023.4 |
| 20260506204244 | 59 | 252 | 0.9 | 1.7 | 0.12 | 0.21 | 0.21 | 94 | 1023.7 |
| 20260506203742 | 59 | 119 | 0.9 | 1.7 | 0.14 | 0.20 | 0.20 | 93 | 1023.5 |
| 20260506203239 | 59 | 183 | 0.9 | 0.9 | 0.07 | 0.19 | 0.19 | 94 | 1023.5 |
| 20260506202736 | 59 | 258 | 0.9 | 0.9 | 0.00 | 0.18 | 0.18 | 93 | 1023.7 |
| 20260506202232 | 59 | 212 | 1.7 | 1.7 | 0.00 | 0.18 | 0.18 | 93 | 1023.6 |
| 20260506201729 | 59 | 261 | 0.9 | 0.9 | 0.05 | 0.18 | 0.18 | 93 | 1023.5 |
| 20260506201226 | 59 | 217 | 0.9 | 1.7 | 0.05 | 0.18 | 0.18 | 93 | 1023.4 |
| 20260506200723 | 59 | 248 | 1.7 | 2.6 | 0.00 | 0.17 | 0.17 | 93 | 1023.5 |
| 20260506200220 | 59 | 180 | 0.9 | 1.7 | 0.00 | 0.17 | 0.17 | 93 | 1023.5 |
| 20260506195716 | 59 | 101 | 1.7 | 2.6 | 0.00 | 0.17 | 0.17 | 93 | 1023.6 |
| 20260506195213 | 59 | 155 | 0.0 | 1.7 | 0.00 | 0.17 | 0.17 | 93 | 1023.6 |
| 20260506194710 | 59 | 200 | 4.3 | 5.2 | 0.00 | 0.17 | 0.17 | 93 | 1023.7 |
| 20260506194206 | 59 | 93 | 2.6 | 5.2 | 0.07 | 0.17 | 0.17 | 93 | 1023.6 |
| 20260506193704 | 59 | 35 | 0.9 | 1.7 | 0.07 | 0.17 | 0.17 | 92 | 1024.0 |
| 20260506193201 | 59 | 74 | 0.0 | 0.9 | 0.00 | 0.16 | 0.16 | 93 | 1024.0 |
| 20260506192657 | 59 | 258 | 1.7 | 3.5 | 0.00 | 0.16 | 0.16 | 92 | 1023.8 |
| 20260506192154 | 59 | 40 | 1.7 | 1.7 | 0.00 | 0.16 | 0.16 | 92 | 1024.0 |
| 20260506191651 | 59 | 96 | 2.6 | 3.5 | 0.00 | 0.16 | 0.16 | 92 | 1024.2 |
| 20260506191147 | 59 | 345 | 0.9 | 2.6 | 0.00 | 0.16 | 0.16 | 92 | 1024.0 |
| 20260506190644 | 59 | 96 | 1.7 | 1.7 | 0.05 | 0.16 | 0.16 | 92 | 1024.0 |
| 20260506190141 | 59 | 189 | 0.0 | 0.0 | 0.12 | 0.16 | 0.16 | 93 | 1024.0 |
| 20260506185638 | 59 | 81 | 1.7 | 3.5 | 0.07 | 0.15 | 0.15 | 92 | 1024.1 |
| 20260506185134 | 59 | 242 | 0.0 | 0.9 | 0.12 | 0.15 | 0.15 | 92 | 1024.6 |
| 20260506184632 | 59 | 41 | 1.7 | 2.6 | 0.05 | 0.14 | 0.14 | 92 | 1024.6 |
| 20260506184129 | 59 | 160 | 2.6 | 3.5 | 0.07 | 0.13 | 0.13 | 92 | 1024.4 |
| 20260506183626 | 59 | 327 | 0.9 | 1.7 | 0.07 | 0.13 | 0.13 | 92 | 1024.3 |
| 20260506183121 | 59 | 173 | 0.0 | 0.0 | 0.00 | 0.12 | 0.12 | 92 | 1024.2 |
| 20260506182619 | 59 | 131 | 4.3 | 7.0 | 0.00 | 0.12 | 0.12 | 91 | 1024.0 |
| 20260506182116 | 59 | 105 | 1.7 | 2.6 | 0.05 | 0.12 | 0.12 | 91 | 1024.1 |
| 20260506181614 | 59 | 156 | 1.7 | 2.6 | 0.05 | 0.12 | 0.12 | 91 | 1024.0 |
| 20260506181111 | 59 | 145 | 4.3 | 6.1 | 0.12 | 0.11 | 0.11 | 91 | 1024.1 |
| 20260506180608 | 60 | 164 | 0.9 | 0.9 | 0.12 | 0.11 | 0.11 | 91 | 1024.1 |
| 20260506180104 | 0 | 0.0 | 0.0 | 0.00 | 0.00 | 0.00 | 1024.4 | ||
| 20260506175600 | 60 | 99 | 0.9 | 0.9 | 0.07 | 0.09 | 0.09 | 90 | 1024.4 |
| 20260506175056 | 60 | 99 | 0.9 | 0.9 | 0.19 | 0.09 | 0.09 | 90 | 1024.8 |
| 20260506174556 | 60 | 117 | 0.0 | 0.9 | 0.12 | 0.08 | 0.08 | 89 | 1024.9 |
| 20260506174051 | 0 | 0.0 | 0.0 | 0.00 | 0.00 | 0.00 | 1025.0 | ||
| 20260506173549 | 61 | 97 | 0.0 | 0.9 | 0.19 | 0.06 | 0.06 | 87 | 1025.3 |
| 20260506173046 | 61 | 97 | 0.0 | 0.9 | 0.19 | 0.06 | 0.06 | 87 | 1025.2 |
| 20260506172543 | 61 | 282 | 2.6 | 3.5 | 0.24 | 0.05 | 0.05 | 86 | 1025.3 |
| 20260506172039 | 61 | 245 | 0.9 | 0.9 | 0.17 | 0.03 | 0.03 | 85 | 1025.3 |
| 20260506171537 | 63 | 147 | 0.9 | 1.7 | 0.05 | 0.01 | 0.01 | 80 | 1025.7 |
| 20260506171034 | 63 | 147 | 0.9 | 1.7 | 0.05 | 0.01 | 0.01 | 80 | 1025.6 |
| 20260506170532 | 64 | 128 | 1.7 | 2.6 | 0.00 | 0.00 | 0.00 | 78 | 1025.8 |
| 20260506170024 | 64 | 231 | 1.7 | 2.6 | 0.00 | 0.00 | 0.00 | 76 | 1025.8 |
| 20260506165522 | 65 | 94 | 0.9 | 1.7 | 0.00 | 0.00 | 0.00 | 73 | 1025.5 |
| 20260506165018 | 66 | 28 | 2.6 | 3.5 | 0.00 | 0.00 | 0.00 | 71 | 1025.7 |
| 20260506164514 | 66 | 55 | 0.9 | 1.7 | 0.00 | 0.00 | 0.00 | 69 | 1025.5 |
| 20260506164012 | 67 | 67 | 1.7 | 2.6 | 0.00 | 0.00 | 0.00 | 68 | 1025.2 |
| 20260506163508 | 67 | 322 | 2.6 | 3.5 | 0.00 | 0.00 | 0.00 | 69 | 1025.3 |
| 20260506163004 | 67 | 119 | 1.7 | 2.6 | 0.00 | 0.00 | 0.00 | 68 | 1025.3 |
| 20260506162500 | 66 | 274 | 5.2 | 8.7 | 0.00 | 0.00 | 0.00 | 68 | 1025.3 |
| 20260506161957 | 66 | 261 | 9.6 | 13.9 | 0.00 | 0.00 | 0.00 | 68 | 1025.1 |
| 20260506161455 | 66 | 158 | 2.6 | 5.2 | 0.00 | 0.00 | 0.00 | 68 | 1025.5 |
| 20260506160952 | 66 | 201 | 3.5 | 5.2 | 0.00 | 0.00 | 0.00 | 68 | 1025.6 |
| 20260506160449 | 67 | 284 | 3.5 | 3.5 | 0.00 | 0.00 | 0.00 | 67 | 1025.6 |
| 20260506155946 | 67 | 13 | 1.7 | 1.7 | 0.00 | 0.00 | 0.00 | 67 | 1025.8 |
| 20260506155444 | 67 | 261 | 1.7 | 1.7 | 0.00 | 0.00 | 0.00 | 67 | 1025.8 |
| 20260506153610 | 67 | 347 | 2.6 | 2.6 | 0.00 | 0.00 | 0.00 | 65 | 1025.6 |
| 20260506153108 | 67 | 107 | 1.7 | 2.6 | 0.00 | 0.00 | 0.00 | 66 | 1025.7 |
| 20260506152605 | 67 | 304 | 4.3 | 7.0 | 0.00 | 0.00 | 0.00 | 66 | 1025.8 |
| 20260506152103 | 67 | 70 | 0.9 | 0.9 | 0.00 | 0.00 | 0.00 | 66 | 1025.7 |
| 20260506151601 | 67 | 80 | 2.6 | 3.5 | 0.00 | 0.00 | 0.00 | 66 | 1025.9 |
| 20260506151057 | 68 | 156 | 1.7 | 2.6 | 0.00 | 0.00 | 0.00 | 66 | 1025.8 |
| 20260506150554 | 68 | 60 | 2.6 | 3.5 | 0.00 | 0.00 | 0.00 | 66 | 1025.9 |
| 20260506150051 | 67 | 216 | 0.9 | 1.7 | 0.00 | 0.00 | 0.00 | 67 | 1025.9 |
| 20260506145548 | 67 | 69 | 3.5 | 3.5 | 0.00 | 0.00 | 0.00 | 66 | 1026.1 |
| 20260506145045 | 67 | 240 | 0.9 | 0.9 | 0.00 | 0.00 | 0.00 | 67 | 1026.1 |
| 20260506144542 | 67 | 310 | 0.9 | 1.7 | 0.00 | 0.00 | 0.00 | 68 | 1026.1 |
| 20260506144039 | 67 | 298 | 3.5 | 5.2 | 0.00 | 0.00 | 0.00 | 68 | 1026.2 |
| 20260506143537 | 67 | 269 | 1.7 | 2.6 | 0.00 | 0.00 | 0.00 | 67 | 1026.3 |
| 20260506143035 | 67 | 78 | 0.9 | 1.7 | 0.00 | 0.00 | 0.00 | 68 | 1026.2 |
| 20260506142532 | 67 | 241 | 2.6 | 5.2 | 0.00 | 0.00 | 0.00 | 68 | 1026.3 |
| 20260506142031 | 66 | 218 | 3.5 | 5.2 | 0.00 | 0.00 | 0.00 | 68 | 1026.3 |
| 20260506141528 | 66 | 255 | 0.9 | 1.7 | 0.00 | 0.00 | 0.00 | 68 | 1026.2 |
| 20260506141026 | 66 | 45 | 0.9 | 1.7 | 0.00 | 0.00 | 0.00 | 70 | 1026.1 |
| 20260506140523 | 66 | 121 | 1.7 | 1.7 | 0.00 | 0.00 | 0.00 | 70 | 1026.3 |
| 20260506140020 | 66 | 187 | 0.0 | 0.9 | 0.00 | 0.00 | 0.00 | 70 | 1026.4 |
| 20260506135517 | 66 | 118 | 1.7 | 1.7 | 0.00 | 0.00 | 0.00 | 70 | 1026.1 |
| 20260506135013 | 65 | 338 | 0.9 | 1.7 | 0.00 | 0.00 | 0.00 | 71 | 1026.0 |
| 20260506134510 | 65 | 59 | 3.5 | 5.2 | 0.00 | 0.00 | 0.00 | 71 | 1025.9 |
| 20260506134006 | 66 | 238 | 5.2 | 7.8 | 0.00 | 0.00 | 0.00 | 70 | 1025.7 |
| 20260506133503 | 66 | 237 | 1.7 | 2.6 | 0.00 | 0.00 | 0.00 | 71 | 1026.0 |
| 20260506133000 | 65 | 180 | 2.6 | 3.5 | 0.00 | 0.00 | 0.00 | 71 | 1025.9 |
| 20260506132457 | 65 | 266 | 2.6 | 3.5 | 0.00 | 0.00 | 0.00 | 72 | 1026.2 |
| 20260506131954 | 65 | 231 | 1.7 | 2.6 | 0.00 | 0.00 | 0.00 | 72 | 1026.1 |
| 20260506131451 | 64 | 253 | 0.9 | 0.9 | 0.00 | 0.00 | 0.00 | 73 | 1026.1 |
| 20260506130948 | 64 | 291 | 3.5 | 6.1 | 0.00 | 0.00 | 0.00 | 74 | 1026.1 |
| 20260506130444 | 64 | 264 | 1.7 | 2.6 | 0.00 | 0.00 | 0.00 | 75 | 1026.1 |
| 20260506125942 | 64 | 80 | 2.6 | 5.2 | 0.00 | 0.00 | 0.00 | 75 | 1026.4 |
| 20260506125440 | 64 | 199 | 1.7 | 3.5 | 0.00 | 0.00 | 0.00 | 76 | 1026.4 |
| 20260506124938 | 64 | 199 | 0.9 | 0.9 | 0.00 | 0.00 | 0.00 | 75 | 1026.6 |
| 20260506124435 | 64 | 274 | 0.0 | 0.9 | 0.00 | 0.00 | 0.00 | 76 | 1026.7 |
| 20260506123933 | 63 | 81 | 0.0 | 1.7 | 0.00 | 0.00 | 0.00 | 75 | 1026.6 |
| 20260506123431 | 64 | 343 | 2.6 | 2.6 | 0.00 | 0.00 | 0.00 | 75 | 1026.7 |
| 20260506122928 | 64 | 304 | 3.5 | 5.2 | 0.00 | 0.00 | 0.00 | 75 | 1026.8 |
| 20260506122425 | 64 | 298 | 0.0 | 0.9 | 0.00 | 0.00 | 0.00 | 75 | 1026.6 |
| 20260506121923 | 63 | 176 | 2.6 | 5.2 | 0.00 | 0.00 | 0.00 | 76 | 1026.6 |
| 20260506121420 | 63 | 241 | 0.9 | 0.9 | 0.00 | 0.00 | 0.00 | 76 | 1026.5 |
| 20260506120917 | 63 | 117 | 2.6 | 2.6 | 0.00 | 0.00 | 0.00 | 76 | 1026.5 |
| 20260506120414 | 63 | 241 | 4.3 | 5.2 | 0.00 | 0.00 | 0.00 | 76 | 1026.7 |
| 20260506115911 | 63 | 306 | 1.7 | 2.6 | 0.00 | 0.00 | 0.00 | 77 | 1026.4 |
| 20260506115410 | 62 | 252 | 1.7 | 1.7 | 0.00 | 0.00 | 0.00 | 77 | 1026.6 |
| 20260506114908 | 62 | 89 | 3.5 | 5.2 | 0.00 | 0.00 | 0.00 | 78 | 1026.6 |
| 20260506114405 | 62 | 273 | 1.7 | 1.7 | 0.00 | 0.00 | 0.00 | 78 | 1026.7 |
| 20260506113904 | 62 | 108 | 2.6 | 5.2 | 0.00 | 0.00 | 0.00 | 78 | 1026.4 |
| 20260506113401 | 62 | 317 | 0.9 | 1.7 | 0.00 | 0.00 | 0.00 | 78 | 1026.3 |
| 20260506112857 | 62 | 273 | 2.6 | 3.5 | 0.00 | 0.00 | 0.00 | 78 | 1026.4 |
| 20260506112355 | 62 | 21 | 2.6 | 3.5 | 0.00 | 0.00 | 0.00 | 78 | 1026.5 |
| 20260506111852 | 62 | 282 | 3.5 | 5.2 | 0.00 | 0.00 | 0.00 | 78 | 1026.8 |
| 20260506111350 | 62 | 163 | 0.0 | 0.9 | 0.00 | 0.00 | 0.00 | 78 | 1026.8 |
| 20260506110847 | 61 | 115 | 4.3 | 6.1 | 0.00 | 0.00 | 0.00 | 79 | 1026.9 |
| 20260506110344 | 60 | 283 | 0.9 | 1.7 | 0.00 | 0.00 | 0.00 | 80 | 1026.8 |
| 20260506105841 | 60 | 226 | 1.7 | 3.5 | 0.00 | 0.00 | 0.00 | 80 | 1026.8 |
| 20260506105337 | 61 | 291 | 5.2 | 6.1 | 0.00 | 0.00 | 0.00 | 80 | 1026.7 |
| 20260506104835 | 61 | 145 | 1.7 | 1.7 | 0.00 | 0.00 | 0.00 | 80 | 1026.8 |
| 20260506104332 | 61 | 26 | 0.0 | 0.9 | 0.00 | 0.00 | 0.00 | 80 | 1026.8 |
| 20260506103830 | 61 | 310 | 1.7 | 3.5 | 0.00 | 0.00 | 0.00 | 80 | 1026.8 |
| 20260506103327 | 60 | 224 | 1.7 | 2.6 | 0.00 | 0.00 | 0.00 | 80 | 1026.4 |
| 20260506102825 | 60 | 118 | 0.0 | 0.0 | 0.00 | 0.00 | 0.00 | 80 | 1026.6 |
| 20260506102322 | 60 | 213 | 4.3 | 6.1 | 0.00 | 0.00 | 0.00 | 81 | 1026.6 |
| 20260506101820 | 60 | 89 | 0.9 | 0.9 | 0.00 | 0.00 | 0.00 | 81 | 1026.6 |
| 20260506101315 | 60 | 326 | 2.6 | 5.2 | 0.00 | 0.00 | 0.00 | 81 | 1026.7 |
| 20260506100814 | 60 | 234 | 1.7 | 1.7 | 0.00 | 0.00 | 0.00 | 81 | 1026.5 |
| 20260506100312 | 60 | 346 | 1.7 | 2.6 | 0.00 | 0.00 | 0.00 | 81 | 1026.4 |
| 20260506095810 | 60 | 106 | 3.5 | 5.2 | 0.00 | 0.00 | 0.00 | 81 | 1026.6 |
| 20260506095306 | 60 | 142 | 0.9 | 0.9 | 0.00 | 0.00 | 0.00 | 81 | 1026.6 |
| 20260506094803 | 60 | 136 | 0.9 | 0.9 | 0.00 | 0.00 | 0.00 | 80 | 1026.7 |
| 20260506094302 | 60 | 103 | 2.6 | 6.1 | 0.00 | 0.00 | 0.00 | 81 | 1026.4 |
| 20260506093759 | 60 | 92 | 0.9 | 1.7 | 0.00 | 0.00 | 0.00 | 81 | 1026.5 |
| 20260506093256 | 60 | 57 | 1.7 | 1.7 | 0.00 | 0.00 | 0.00 | 81 | 1026.4 |
| 20260506092754 | 60 | 131 | 1.7 | 3.5 | 0.00 | 0.00 | 0.00 | 81 | 1026.5 |
| 20260506092252 | 60 | 125 | 1.7 | 2.6 | 0.00 | 0.00 | 0.00 | 80 | 1026.5 |
| 20260506091749 | 60 | 145 | 3.5 | 6.1 | 0.00 | 0.00 | 0.00 | 81 | 1026.5 |
| 20260506091246 | 60 | 289 | 1.7 | 1.7 | 0.00 | 0.00 | 0.00 | 80 | 1026.4 |
| 20260506090744 | 60 | 88 | 0.9 | 1.7 | 0.00 | 0.00 | 0.00 | 80 | 1026.3 |
| 20260506090241 | 60 | 301 | 0.9 | 0.9 | 0.00 | 0.00 | 0.00 | 80 | 1026.4 |
| 20260506085737 | 60 | 114 | 3.5 | 7.0 | 0.00 | 0.00 | 0.00 | 79 | 1026.3 |
| 20260506085234 | 60 | 123 | 3.5 | 5.2 | 0.00 | 0.00 | 0.00 | 79 | 1026.4 |
| 20260506084730 | 60 | 353 | 1.7 | 1.7 | 0.00 | 0.00 | 0.00 | 79 | 1026.5 |
| 20260506084227 | 60 | 282 | 4.3 | 7.8 | 0.00 | 0.00 | 0.00 | 79 | 1026.7 |
| 20260506083724 | 60 | 126 | 0.9 | 1.7 | 0.00 | 0.00 | 0.00 | 79 | 1026.6 |
| 20260506083222 | 60 | 237 | 0.0 | 0.9 | 0.00 | 0.00 | 0.00 | 78 | 1026.5 |
| 20260506082719 | 60 | 141 | 0.0 | 0.9 | 0.00 | 0.00 | 0.00 | 78 | 1026.6 |
| 20260506082214 | 60 | 173 | 0.0 | 0.9 | 0.00 | 0.00 | 0.00 | 77 | 1026.5 |
| 20260506081712 | 61 | 110 | 0.9 | 0.9 | 0.00 | 0.00 | 0.00 | 77 | 1026.5 |
| 20260506081210 | 61 | 135 | 0.0 | 0.9 | 0.00 | 0.00 | 0.00 | 77 | 1026.6 |
| 20260506080707 | 61 | 30 | 1.7 | 3.5 | 0.00 | 0.00 | 0.00 | 77 | 1026.5 |
| 20260506080204 | 61 | 316 | 1.7 | 2.6 | 0.00 | 0.00 | 0.00 | 76 | 1026.5 |
| 20260506073148 | 61 | 276 | 1.7 | 3.5 | 0.00 | 0.00 | 0.00 | 75 | 1026.6 |
| 20260506072644 | 61 | 268 | 0.0 | 0.9 | 0.00 | 0.00 | 0.00 | 75 | 1026.5 |
| 20260506072142 | 61 | 102 | 1.7 | 1.7 | 0.00 | 0.00 | 0.00 | 75 | 1026.7 |
| 20260506071640 | 61 | 127 | 0.0 | 0.9 | 0.00 | 0.00 | 0.00 | 75 | 1026.7 |
| 20260506071137 | 61 | 320 | 2.6 | 2.6 | 0.00 | 0.00 | 0.00 | 76 | 1026.7 |
| 20260506070634 | 61 | 56 | 0.0 | 0.9 | 0.00 | 0.00 | 0.00 | 75 | 1026.6 |
| 20260506070131 | 61 | 249 | 1.7 | 1.7 | 0.00 | 0.00 | 0.00 | 75 | 1026.7 |
| 20260506062108 | 61 | 78 | 0.0 | 0.9 | 0.00 | 0.00 | 0.00 | 74 | 1026.5 |
| 20260506061604 | 61 | 70 | 1.7 | 1.7 | 0.00 | 0.00 | 0.00 | 74 | 1026.5 |
| 20260506061102 | 61 | 234 | 1.7 | 1.7 | 0.00 | 0.00 | 0.00 | 74 | 1026.5 |
| 20260506060600 | 62 | 333 | 1.7 | 1.7 | 0.00 | 0.00 | 0.00 | 74 | 1026.6 |